WESTFORD NEEDLES *

Satellite information

Favourite Embed

Satellite Type and Status

DEBRISIN ORBIT

Key statistics

Satellite WESTFORD NEEDLES * at a glance.

Uptime

22706

Days in orbit

Revolutions

≈ 11.3

Per day

Orbit

HEO

HEO

Inclination

88.4

Latest

Satellite identification and parameters

Extended collection of information and parameters for WESTFORD NEEDLES *.

Object identification

Identified? True

Debris? False

Object name: WESTFORD NEEDLES *

International designator: 1963-014CF

Object number (NORAD): 3267

Object ID (CCSDS): 3267

Country: UNITED STATES OF AMERICA (US)

Current information (Y/N): Y

RCS size: SMALL

Orbital parameters

Period: 126.997 minutes

Inclination: 88.391 deg

SMA: 8369.279 km

Apoapsis: 3404.685 km

Periapsis: 577.603 km

RAAN: 120.4947 deg

Eccentricy: 0.1688964

Argument of periapsis: 111.8635 deg

Mean anomaly: 267.0182 deg

Mean motion: 11.3388937 rev/day

Mean motion (dot): 0.00000229 rev/day2

B* drag term: 0.00014723 1/REarth

Two-line elements (TLE)

Creation date: July 8, 2025, 2:27 a.m.

Reference frame: TEME

Reference center: EARTH

Epoch: July 7, 2025, 7:24 p.m. UTC

TLE line 0: 0 WESTFORD NEEDLES *

TLE line 1: 1 03267U 63014CF 25188.80895212 .00000229 00000-0 14723-3 0 9994

TLE line 2: 2 03267 88.3910 120.4947 1688964 111.8635 267.0182 11.33889370503303

Live tracking on map

Real-time ground track for satellite WESTFORD NEEDLES *.

In-orbit conjunctions

A list of the most updated potential collisions computed for object WESTFORD NEEDLES *.

Target Orbit TCA Probability of collision Miss distance Type
CZ-6A DEB LEO 2025-01-13 09:43:27 0.0001431173 633.0 (m) DEBRIS

Associated space launch

MIDAS Series 3 (Military Defense Alarm System) early warning satellite.

WESTFORD NEEDLES * was lifted into orbit during the mission ‘Atlas Agena B | Midas 7’, on board a Atlas Agena B space rocket.

The launch took place on May 9, 1963, 8:06 p.m. from Space Launch Complex 3E.

For more information about the launch, click the button.

Launch to space Atlas Agena B | Midas 7
Atlas Agena B | Midas 7

Agency: N/A

Status: Launch Successful

Launch date: May 9, 1963, 8:06 p.m. UTC

Rocket: Atlas Agena B

Launch pad: Space Launch Complex 3E

Location: Vandenberg SFB, CA, USA

...

Latest news about this satellite

There are no fresh news available about this satellite. Check back as we update our databases every day.


Newsletter sign-up

Weekly statistics, charts and insights to help you stay on top of the space industry.